Find Kosmos-1842

NORAD ID: 17911 Int'l Des: 1987-038 Owner: GRU Country: SU operational
LEOCIRCULARPOLAR

現在のビュー

3D地球を読み込み中...

Kosmos-1842について

説明を読み込み中...

次回通過

Passes for default location (London). Set your location on the main map for personalized predictions.

高度履歴

Loading altitude history...

軌道要素

1 17911U 87038A 26151.14578808 .00031367 00000-0 44065-3 0 9993
2 17911 82.5038 192.7850 0003296 23.8727 336.2680 15.56541741138120
Epoch: May 31, 2026 • Age: 9 hours

現在のステータス

高度 399.0 km
速度 7.67 km/s
衛星直下点 -1.89°S, 111.88°E
打ち上げ日 Apr 27, 1987
運用期間 39 years
タイプ other

技術仕様

分類 Payload
質量 1750.00 kg
乾燥質量 1750.00 kg
総質量 1750.00 kg
長さ 3.20 m
直径 1.30 m
スパン 13.10 m
形状 Cyl + Ant
製造者 YUZH
バスタイプ Tselina-D
フェーズステータス In Orbit
所有者/国 GRU/SU

Most Searched